Regional Weather Roundup
Issued by NWS Portland, ME

Current Version | Previous Version | Text Only | Print | Product List | Glossary Off
Versions: 1 2 3 4 5 6 7 8 9 10 11 12 13 14 15 16 17 18 19 20 21 22 23 24 25 26 27 28 29 30 31 32 33 34 35 36 37 38 39 40 41 42 43 44 45 46 47 48 49 50
000 ASUS41 KGYX 270810 RWRGYX WEATHER ROUNDUP FOR MAINE AND NEW HAMPSHIRE NATIONAL WEATHER SERVICE GRAY ME 400 AM EDT THU APR 27 2017 MEZ002-005-006-010-012-015-018-020-021-024-026-027-029-270900- MAINE CITY SKY/WX TMP DP RH WIND PRES REMARKS PORTLAND CLOUDY 49 48 97 NE9G16 29.88S SANFORD LGT RAIN 52 51 97 NE3 29.87S FOG BAR HARBOR LGT RAIN 52 52 100 S5 29.95S FOG WISCASSET CLOUDY 51 50 96 NE5 29.91S ROCKLAND CLOUDY 49 48 97 NE5 29.91S FOG FRYEBURG CLOUDY 53 53 100 N3 29.89S LEWISTONAUBURN LGT RAIN 52 52 100 NE3 29.89S AUGUSTA CLOUDY 51 50 96 E6 29.90S WATERVILLE CLOUDY 53 53 100 VRB3 29.88S BANGOR CLOUDY 53 53 100 SE8 29.92F FOG GREENVILLE N/A 51 51 100 SE6 29.90S MILLINOCKET LGT RAIN 53 53 100 E6 29.94F VSB 3/4 HOULTON CLOUDY 55 55 100 SE8 29.95F FOG PRESQUE ISLE CLOUDY 54 54 100 SE3 29.96F FOG FRENCHVILLE FOG 52 51 97 SE7 29.95S VSB 1/4 CARIBOU CLOUDY 55 53 93 SE8 29.95S $$ NHZ002-005-008-009-011-012-014-270900- NEW HAMPSHIRE CITY SKY/WX TMP DP RH WIND PRES REMARKS PORTSMOUTH DRIZZLE 50 50 99 E5 29.86S FOG ROCHESTER CLOUDY 52 51 97 NE3 29.85F FOG NASHUA CLOUDY 53 53 100 CALM 29.87S FOG MANCHESTER CLOUDY 54 51 90 SE3 29.86S FOG CONCORD FOG 53 52 96 W3 29.87R VSB 3/4 LACONIA CLOUDY 53 52 96 NE5 29.87S BERLIN FOG 51 48 89 CALM 29.88S VSB 3/4 WHITEFIELD PTCLDY 50 46 86 CALM 29.86R JAFFREY FOG 53 53 100 CALM 29.87R VSB 3/4 KEENE CLOUDY 54 53 97 E3 29.86F LEBANON CLOUDY 54 53 97 S3 29.85S MT WASHINGTON FOG 43 43 100 S24 N/A VSB 1/8 $$ VTZ005-007-008-270900- VERMONT CITY SKY/WX TMP DP RH WIND PRES REMARKS ST JOHNSBURY N/A 54 53 97 MISG 29.85R BURLINGTON CLEAR 55 52 89 W3 29.81S $$ MAZ007-012-024-CTZ003-RIZ002-NYZ038-NYZ072-270900- SOUTHERN NEW ENGLAND AND NY CITY SKY/WX TMP DP RH WIND PRES REMARKS BOSTON FOG 50 50 100 NE3 29.86S VSB 1/4 WORCESTER FOG 51 50 96 NE3 29.86R VSB 1/4 NANTUCKET FOG 52 50 93 NE6 29.84F VSB 1 PROVIDENCE CLOUDY 55 55 100 N9 29.85S HARTFORD CLOUDY 56 55 97 N3 29.85F ALBANY CLOUDY 60 54 80 S3 29.84R NEW YORK CITY DRZL/FOG 57 56 96 CALM 29.85R VSB 1/2 $$ ANZ081-ANZ082-ANZ150-NHZ014-MEZ023>029-270900- COASTAL MARINE OBSERVATIONS STATION/POSITION TIME TEMP WIND PRES WAVE AIR SEA DIR/SP/G HT/PER (UTC) (F) (DEG/KT/KT) (MB) (FT/S) MOUNT DESERT ROC 0800 44 1013.5R MATINICUS ROCK 0700 45 160/ 15/ 16 1012.2R ISLE OF SHOALS 0700 46 60/ 8/ 9 1010.8S JEFFREYS LEDGE 0706 44 N/A 9/10 CASHES LEDGE BUO 0650 45 43 1011.9 10/11 GEORGES BANK BUO 0650 54 42 1013.4 12/11 $$ .............KEY.............. WCI - WIND CHILL TC - TEMPERATURE IN CELSIUS VSB - VISIBILITY IN MILES HX - HEAT INDEX FAIR- INDICATES FEW OR NO CLOUDS BELOW 12,000 FT, WITH NO SIGNIFICANT WEATHER AND/OR OBSTRUCTIONS TO VISIBILITY.

USA.gov is the U.S. government's official web portal to all federal, state and local government web resources and services.